QPF
0.03 0.03 0.04 0.07 0.07 0.06 0.05 0.05 0.04 0.03 0.04 0.05 0.04 0.04 0.05 0.05 0.05 0.06 0.07 0.07 0.08 0.07 0.06 0.05 0.05 0.05 0.05 0.05 0.05 0.06 0.05 0.03 0.02 0.02 0.02 0.02 0.02 0.02 0.02 0.02 0.02 0.02 0.02
0.04 0.04 0.05 0.07 0.06 0.04 0.04 0.03 0.03 0.02 0.02 0.03 0.03 0.03 0.03 0.03 0.04 0.05 0.06 0.06 0.05 0.05 0.05 0.05 0.05 0.05 0.05 0.06 0.05 0.07 0.05 0.04 0.04 0.03 0.03 0.03 0.03 0.03 0.02 0.03 0.03 0.03 0.03
0.04 0.04 0.05 0.07 0.05 0.04 0.04 0.03 0.02 0.02 0.02 0.02 0.02 0.02 0.03 0.03 0.03 0.04 0.05 0.04 0.04 0.05 0.06 0.05 0.05 0.06 0.06 0.06 0.05 0.05 0.05 0.05 0.04 0.03 0.03 0.03 0.03 0.03 0.03 0.04 0.04 0.04 0.04
0.04 0.05 0.06 0.08 0.06 0.05 0.05 0.05 0.03 0.03 0.03 0.03 0.03 0.02 0.02 0.02 0.02 0.04 0.05 0.03 0.02 0.03 0.04 0.05 0.05 0.05 0.06 0.07 0.07 0.05 0.06 0.07 0.05 0.03 0.03 0.03 0.03 0.04 0.03 0.03 0.04 0.04 0.05
0.05 0.05 0.06 0.07 0.08 0.07 0.06 0.06 0.06 0.04 0.05 0.05 0.04 0.03 0.03 0.04 0.05 0.05 0.05 0.05 0.03 0.02 0.02 0.03 0.04 0.05 0.04 0.05 0.08 0.10 0.10 0.09 0.06 0.05 0.05 0.04 0.03 0.03 0.03 0.03 0.03 0.03 0.04
0.06 0.05 0.05 0.06 0.08 0.09 0.08 0.07 0.06 0.05 0.04 0.05 0.06 0.05 0.04 0.04 0.04 0.06 0.06 0.05 0.04 0.03 0.02 0.02 0.03 0.04 0.04 0.05 0.07 0.09 0.09 0.09 0.08 0.07 0.07 0.05 0.04 0.03 0.02 0.03 0.03 0.03 0.03
0.05 0.05 0.04 0.04 0.05 0.07 0.07 0.06 0.05 0.05 0.05 0.05 0.05 0.04 0.03 0.03 0.04 0.04 0.06 0.04 0.03 0.04 0.03 0.03 0.03 0.03 0.03 0.03 0.05 0.07 0.10 0.13 0.14 0.13 0.10 0.06 0.05 0.05 0.05 0.05 0.05 0.05 0.04
0.04 0.02 0.02 0.03 0.04 0.04 0.04 0.05 0.04 0.06 0.05 0.03 0.02 0.03 0.02 0.03 0.03 0.04 0.04 0.03 0.02 0.03 0.03 0.03 0.04 0.04 0.04 0.03 0.04 0.06 0.09 0.13 0.14 0.14 0.11 0.08 0.07 0.07 0.07 0.08 0.08 0.08 0.07
0.03 0.02 0.02 0.04 0.03 0.03 0.03 0.03 0.03 0.04 0.03 0.02 0.01 0.02 0.01 0.03 0.04 0.05 0.03 0.02 0.02 0.02 0.03 0.04 0.04 0.04 0.04 0.04 0.04 0.06 0.08 0.09 0.09 0.10 0.10 0.09 0.09 0.08 0.08 0.09 0.08 0.08 0.07
0.04 0.02 0.02 0.03 0.03 0.03 0.02 0.02 0.02 0.03 0.03 0.02 0.02 0.02 0.02 0.03 0.03 0.02 0.01 0.01 0.01 0.01 0.02 0.03 0.03 0.04 0.04 0.04 0.04 0.05 0.05 0.04 0.05 0.07 0.08 0.08 0.08 0.07 0.08 0.08 0.08 0.08 0.08
0.04 0.03 0.02 0.03 0.03 0.02 0.02 0.01 0.01 0.03 0.03 0.02 0.02 0.02 0.02 0.02 0.02 0.01 0.01 0.01 0.01 0.02 0.02 0.03 0.04 0.04 0.05 0.05 0.06 0.05 0.04 0.03 0.02 0.03 0.04 0.05 0.06 0.07 0.07 0.07 0.07 0.08 0.09
0.04 0.04 0.05 0.05 0.04 0.03 0.02 0.02 0.02 0.03 0.02 0.01 0.01 0.01 0.02 0.02 0.02 0.01 0.01 0.01 0.01 0.01 0.02 0.01 0.02 0.03 0.03 0.04 0.04 0.05 0.04 0.03 0.03 0.03 0.04 0.04 0.04 0.05 0.06 0.07 0.07 0.08 0.09
0.04 0.06 0.07 0.08 0.05 0.05 0.03 0.03 0.02 0.02 0.01 0.01 0.01 0.01 0.01 0.01 0.02 0.02 0.02 0.02 0.01 0.00 0.00 0.01 0.01 0.01 0.01 0.01 0.02 0.03 0.03 0.04 0.03 0.03 0.03 0.03 0.03 0.05 0.05 0.06 0.06 0.05 0.06
0.01 0.04 0.06 0.09 0.07 0.05 0.03 0.03 0.03 0.02 0.02 0.01 0.01 0.01 0.01 0.02 0.03 0.03 0.03 0.03 0.01 0.01 0.01 0.00 0.01 0.01 0.01 0.00 0.01 0.02 0.01 0.01 0.02 0.01 0.01 0.01 0.01 0.03 0.04 0.03 0.03 0.03 0.04
0.03 0.03 0.04 0.05 0.06 0.05 0.04 0.03 0.02 0.02 0.03 0.03 0.03 0.03 0.03 0.04 0.05 0.03 0.04 0.05 0.03 0.02 0.01 0.01 0.01 0.01 0.02 0.02 0.02 0.01 0.01 0.01 0.01 0.01 0.01 0.01 0.01 0.01 0.01 0.01 0.01 0.01 0.01
0.03 0.03 0.03 0.04 0.04 0.04 0.04 0.03 0.02 0.02 0.02 0.03 0.03 0.03 0.03 0.03 0.03 0.03 0.03 0.05 0.05 0.05 0.04 0.03 0.04 0.03 0.03 0.04 0.04 0.02 0.02 0.01 0.01 0.02 0.02 0.01 0.01 0.01 0.01 0.01 0.01 0.01 0.01
0.03 0.03 0.03 0.03 0.03 0.03 0.03 0.03 0.02 0.02 0.03 0.03 0.03 0.02 0.02 0.02 0.03 0.05 0.05 0.05 0.06 0.07 0.06 0.04 0.03 0.03 0.03 0.03 0.03 0.02 0.02 0.02 0.02 0.03 0.04 0.02 0.01 0.01 0.01 0.01 0.01 0.01 0.01
0.03 0.03 0.03 0.02 0.02 0.02 0.02 0.02 0.03 0.03 0.03 0.03 0.03 0.02 0.02 0.03 0.04 0.06 0.06 0.07 0.06 0.05 0.05 0.03 0.01 0.01 0.01 0.01 0.01 0.01 0.02 0.02 0.02 0.03 0.04 0.02 0.01 0.01 0.01 0.01 0.01 0.01 0.01
0.03 0.03 0.03 0.02 0.02 0.02 0.02 0.02 0.02 0.03 0.04 0.04 0.04 0.04 0.03 0.03 0.03 0.04 0.05 0.04 0.05 0.04 0.03 0.03 0.02 0.01 0.01 0.01 0.01 0.02 0.02 0.02 0.02 0.03 0.03 0.02 0.02 0.02 0.01 0.01 0.02 0.01 0.01
0.01 0.01 0.02 0.02 0.03 0.03 0.03 0.03 0.03 0.02 0.02 0.02 0.02 0.02 0.02 0.02 0.02 0.02 0.02 0.02 0.03 0.04 0.03 0.03 0.02 0.02 0.01 0.01 0.01 0.01 0.02 0.02 0.02 0.02 0.02 0.02 0.02 0.03 0.02 0.02 0.02 0.02 0.01
0.02 0.02 0.03 0.03 0.03 0.03 0.03 0.03 0.02 0.01 0.01 0.01 0.01 0.01 0.01 0.02 0.02 0.01 0.01 0.02 0.03 0.03 0.02 0.02 0.01 0.01 0.01 0.01 0.01 0.01 0.01 0.01 0.01 0.01 0.01 0.02 0.03 0.03 0.02 0.02 0.02 0.01 0.01
0.04 0.04 0.04 0.05 0.03 0.02 0.03 0.03 0.02 0.02 0.01 0.01 0.01 0.01 0.01 0.02 0.02 0.02 0.02 0.03 0.03 0.02 0.02 0.01 0.01 0.01 0.01 0.01 0.01 0.01 0.01 0.01 0.01 0.01 0.02 0.01 0.02 0.01 0.01 0.02 0.02 0.02 0.02
0.06 0.06 0.04 0.04 0.05 0.04 0.03 0.03 0.03 0.02 0.01 0.02 0.02 0.01 0.02 0.02 0.03 0.03 0.02 0.02 0.02 0.02 0.03 0.02 0.02 0.01 0.01 0.02 0.02 0.02 0.02 0.02 0.02 0.02 0.01 0.01 0.01 0.01 0.01 0.01 0.01 0.01 0.01
0.03 0.02 0.02 0.03 0.03 0.03 0.04 0.04 0.05 0.06 0.05 0.04 0.03 0.03 0.03 0.04 0.04 0.03 0.02 0.01 0.01 0.01 0.02 0.02 0.03 0.02 0.02 0.02 0.02 0.02 0.02 0.03 0.03 0.03 0.02 0.01 0.01 0.01 0.01 0.01 0.02 0.01 0.01
0.01 0.01 0.01 0.02 0.02 0.04 0.06 0.07 0.08 0.09 0.08 0.06 0.05 0.05 0.04 0.04 0.04 0.03 0.03 0.01 0.01 0.01 0.02 0.02 0.02 0.02 0.02 0.02 0.03 0.02 0.01 0.02 0.02 0.02 0.02 0.02 0.02 0.02 0.02 0.02 0.02 0.02 0.02
0.02 0.02 0.02 0.02 0.02 0.02 0.03 0.04 0.07 0.09 0.09 0.08 0.07 0.06 0.06 0.07 0.07 0.06 0.05 0.03 0.02 0.02 0.03 0.03 0.02 0.02 0.02 0.03 0.03 0.03 0.02 0.02 0.01 0.01 0.02 0.02 0.02 0.02 0.03 0.02 0.02 0.02 0.02
MSLP
1016.15 1016.24 1016.24 1016.17 1016.06 1015.93 1015.81 1015.70 1015.63 1015.57 1015.50 1015.43 1015.33 1015.20 1015.07 1014.94 1014.83 1014.78 1014.79 1014.85 1014.96 1015.10 1015.27 1015.43 1015.59 1015.74 1015.90 1016.06 1016.23 1016.42 1016.62 1016.83 1017.04 1017.24 1017.43 1017.61 1017.78 1017.94 1018.11 1018.28 1018.45 1018.64 1018.82
1016.05 1016.15 1016.16 1016.10 1016.00 1015.88 1015.75 1015.65 1015.57 1015.50 1015.42 1015.33 1015.20 1015.03 1014.83 1014.63 1014.45 1014.31 1014.25 1014.25 1014.34 1014.48 1014.65 1014.85 1015.05 1015.23 1015.40 1015.55 1015.69 1015.84 1015.99 1016.16 1016.34 1016.54 1016.75 1016.96 1017.18 1017.41 1017.63 1017.85 1018.06 1018.27 1018.48
1015.81 1015.90 1015.92 1015.89 1015.81 1015.72 1015.63 1015.55 1015.48 1015.43 1015.35 1015.25 1015.10 1014.89 1014.64 1014.37 1014.12 1013.90 1013.76 1013.71 1013.75 1013.86 1014.04 1014.24 1014.45 1014.63 1014.79 1014.92 1015.03 1015.13 1015.24 1015.36 1015.52 1015.71 1015.94 1016.19 1016.46 1016.74 1017.01 1017.29 1017.55 1017.81 1018.05
1015.47 1015.54 1015.57 1015.56 1015.52 1015.47 1015.43 1015.39 1015.36 1015.33 1015.28 1015.18 1015.02 1014.80 1014.52 1014.20 1013.88 1013.60 1013.39 1013.27 1013.25 1013.32 1013.46 1013.64 1013.82 1013.99 1014.13 1014.23 1014.30 1014.36 1014.42 1014.52 1014.65 1014.84 1015.07 1015.34 1015.64 1015.95 1016.27 1016.59 1016.89 1017.19 1017.49
1015.08 1015.12 1015.14 1015.16 1015.16 1015.16 1015.16 1015.18 1015.20 1015.20 1015.18 1015.10 1014.95 1014.73 1014.44 1014.11 1013.76 1013.43 1013.16 1012.98 1012.89 1012.89 1012.96 1013.08 1013.22 1013.34 1013.44 1013.50 1013.54 1013.57 1013.61 1013.68 1013.80 1013.97 1014.19 1014.46 1014.77 1015.09 1015.41 1015.74 1016.07 1016.40 1016.73
1014.70 1014.69 1014.70 1014.72 1014.75 1014.79 1014.84 1014.90 1014.96 1015.00 1015.01 1014.97 1014.85 1014.66 1014.40 1014.07 1013.72 1013.38 1013.07 1012.83 1012.67 1012.58 1012.57 1012.60 1012.67 1012.72 1012.77 1012.80 1012.81 1012.82 1012.85 1012.91 1013.02 1013.18 1013.39 1013.63 1013.90 1014.19 1014.49 1014.79 1015.10 1015.44 1015.79
1014.36 1014.30 1014.28 1014.29 1014.34 1014.40 1014.48 1014.57 1014.65 1014.72 1014.76 1014.75 1014.68 1014.54 1014.33 1014.05 1013.74 1013.40 1013.08 1012.79 1012.56 1012.39 1012.28 1012.21 1012.18 1012.16 1012.15 1012.14 1012.14 1012.15 1012.18 1012.25 1012.36 1012.51 1012.69 1012.89 1013.10 1013.32 1013.55 1013.79 1014.05 1014.35 1014.69
1014.11 1013.98 1013.92 1013.92 1013.95 1014.02 1014.10 1014.19 1014.28 1014.35 1014.41 1014.44 1014.42 1014.34 1014.20 1014.00 1013.74 1013.45 1013.13 1012.82 1012.53 1012.27 1012.05 1011.88 1011.74 1011.65 1011.58 1011.54 1011.54 1011.56 1011.62 1011.70 1011.82 1011.96 1012.11 1012.26 1012.40 1012.53 1012.67 1012.81 1012.99 1013.22 1013.52
1013.94 1013.76 1013.66 1013.63 1013.64 1013.68 1013.73 1013.79 1013.86 1013.92 1013.98 1014.02 1014.05 1014.04 1013.98 1013.86 1013.68 1013.44 1013.15 1012.83 1012.49 1012.15 1011.84 1011.57 1011.34 1011.16 1011.05 1010.99 1010.98 1011.03 1011.12 1011.24 1011.38 1011.52 1011.65 1011.75 1011.82 1011.87 1011.90 1011.95 1012.03 1012.18 1012.41
1013.86 1013.65 1013.52 1013.44 1013.41 1013.41 1013.41 1013.42 1013.43 1013.45 1013.49 1013.53 1013.59 1013.63 1013.65 1013.61 1013.52 1013.34 1013.08 1012.76 1012.39 1012.00 1011.60 1011.24 1010.93 1010.69 1010.53 1010.45 1010.45 1010.52 1010.65 1010.81 1010.98 1011.14 1011.26 1011.33 1011.36 1011.34 1011.30 1011.26 1011.26 1011.32 1011.47
1013.88 1013.65 1013.48 1013.38 1013.30 1013.23 1013.17 1013.10 1013.04 1013.00 1012.99 1013.01 1013.07 1013.15 1013.22 1013.25 1013.22 1013.10 1012.88 1012.57 1012.19 1011.75 1011.30 1010.87 1010.50 1010.20 1010.01 1009.92 1009.92 1010.02 1010.18 1010.38 1010.58 1010.76 1010.90 1010.98 1010.99 1010.95 1010.87 1010.78 1010.72 1010.72 1010.80
1013.99 1013.75 1013.57 1013.42 1013.30 1013.17 1013.03 1012.87 1012.73 1012.60 1012.53 1012.51 1012.54 1012.62 1012.72 1012.79 1012.81 1012.73 1012.55 1012.25 1011.87 1011.41 1010.93 1010.46 1010.04 1009.71 1009.49 1009.39 1009.40 1009.51 1009.69 1009.91 1010.15 1010.36 1010.53 1010.64 1010.68 1010.66 1010.59 1010.51 1010.43 1010.40 1010.43
1014.18 1013.94 1013.75 1013.57 1013.40 1013.21 1012.99 1012.75 1012.51 1012.30 1012.14 1012.06 1012.05 1012.11 1012.20 1012.28 1012.31 1012.26 1012.10 1011.82 1011.44 1010.99 1010.50 1010.01 1009.58 1009.24 1009.01 1008.90 1008.90 1009.01 1009.20 1009.43 1009.69 1009.93 1010.14 1010.29 1010.39 1010.43 1010.42 1010.38 1010.34 1010.31 1010.32
1014.44 1014.21 1014.01 1013.80 1013.59 1013.33 1013.04 1012.72 1012.40 1012.10 1011.87 1011.71 1011.64 1011.65 1011.70 1011.76 1011.78 1011.73 1011.57 1011.31 1010.95 1010.51 1010.04 1009.57 1009.15 1008.82 1008.58 1008.47 1008.46 1008.56 1008.73 1008.96 1009.21 1009.47 1009.71 1009.92 1010.09 1010.21 1010.30 1010.34 1010.37 1010.38 1010.40
1014.75 1014.52 1014.31 1014.08 1013.82 1013.52 1013.16 1012.78 1012.38 1012.01 1011.70 1011.47 1011.33 1011.27 1011.26 1011.27 1011.26 1011.18 1011.02 1010.77 1010.43 1010.02 1009.59 1009.16 1008.77 1008.46 1008.24 1008.13 1008.11 1008.18 1008.32 1008.52 1008.75 1009.01 1009.27 1009.52 1009.76 1009.97 1010.15 1010.30 1010.41 1010.49 1010.54
1015.07 1014.84 1014.61 1014.36 1014.06 1013.72 1013.32 1012.88 1012.44 1012.01 1011.63 1011.33 1011.12 1010.99 1010.91 1010.85 1010.78 1010.67 1010.49 1010.23 1009.91 1009.54 1009.15 1008.78 1008.45 1008.18 1007.99 1007.88 1007.84 1007.88 1007.98 1008.13 1008.33 1008.56 1008.82 1009.09 1009.38 1009.66 1009.93 1010.18 1010.38 1010.53 1010.64
1015.36 1015.12 1014.87 1014.59 1014.27 1013.89 1013.46 1013.00 1012.52 1012.05 1011.63 1011.27 1010.99 1010.78 1010.63 1010.50 1010.36 1010.19 1009.98 1009.71 1009.41 1009.07 1008.73 1008.42 1008.14 1007.93 1007.77 1007.68 1007.64 1007.65 1007.70 1007.80 1007.95 1008.13 1008.36 1008.64 1008.94 1009.27 1009.61 1009.92 1010.20 1010.43 1010.59
1015.58 1015.32 1015.04 1014.74 1014.40 1014.00 1013.56 1013.08 1012.58 1012.09 1011.63 1011.24 1010.90 1010.63 1010.40 1010.19 1009.98 1009.75 1009.49 1009.21 1008.90 1008.59 1008.29 1008.03 1007.81 1007.65 1007.53 1007.46 1007.42 1007.41 1007.43 1007.48 1007.57 1007.71 1007.90 1008.15 1008.45 1008.80 1009.16 1009.53 1009.86 1010.15 1010.36
1015.68 1015.40 1015.11 1014.79 1014.43 1014.03 1013.58 1013.09 1012.58 1012.08 1011.61 1011.18 1010.80 1010.47 1010.17 1009.89 1009.61 1009.32 1009.01 1008.68 1008.36 1008.05 1007.78 1007.56 1007.39 1007.27 1007.19 1007.14 1007.11 1007.09 1007.09 1007.10 1007.15 1007.24 1007.40 1007.61 1007.90 1008.24 1008.61 1008.99 1009.36 1009.69 1009.96
1015.65 1015.35 1015.05 1014.72 1014.36 1013.95 1013.50 1013.01 1012.50 1012.00 1011.51 1011.06 1010.65 1010.27 1009.91 1009.57 1009.21 1008.85 1008.48 1008.12 1007.76 1007.45 1007.18 1006.97 1006.82 1006.73 1006.68 1006.65 1006.64 1006.62 1006.61 1006.61 1006.64 1006.70 1006.82 1007.01 1007.27 1007.60 1007.97 1008.35 1008.74 1009.10 1009.41
1015.47 1015.18 1014.88 1014.56 1014.20 1013.79 1013.33 1012.84 1012.33 1011.82 1011.32 1010.85 1010.40 1009.98 1009.58 1009.17 1008.76 1008.33 1007.91 1007.49 1007.10 1006.75 1006.46 1006.25 1006.10 1006.02 1005.98 1005.97 1005.96 1005.96 1005.95 1005.96 1005.98 1006.04 1006.15 1006.33 1006.58 1006.89 1007.25 1007.64 1008.04 1008.43 1008.78
1015.17 1014.90 1014.62 1014.32 1013.96 1013.56 1013.10 1012.60 1012.08 1011.55 1011.03 1010.53 1010.05 1009.60 1009.15 1008.69 1008.23 1007.75 1007.27 1006.80 1006.37 1005.98 1005.66 1005.42 1005.25 1005.16 1005.11 1005.10 1005.10 1005.11 1005.12 1005.13 1005.17 1005.24 1005.36 1005.55 1005.80 1006.12 1006.49 1006.89 1007.31 1007.72 1008.11
1014.81 1014.58 1014.33 1014.04 1013.70 1013.29 1012.83 1012.31 1011.76 1011.20 1010.65 1010.12 1009.61 1009.12 1008.63 1008.13 1007.63 1007.11 1006.59 1006.08 1005.60 1005.17 1004.81 1004.53 1004.34 1004.21 1004.14 1004.11 1004.11 1004.12 1004.14 1004.17 1004.23 1004.32 1004.47 1004.69 1004.97 1005.30 1005.69 1006.12 1006.56 1007.01 1007.44
1014.43 1014.24 1014.03 1013.77 1013.44 1013.03 1012.55 1012.00 1011.42 1010.82 1010.23 1009.65 1009.10 1008.56 1008.04 1007.51 1006.97 1006.43 1005.88 1005.34 1004.83 1004.37 1003.98 1003.66 1003.43 1003.26 1003.16 1003.10 1003.07 1003.07 1003.09 1003.13 1003.21 1003.33 1003.51 1003.76 1004.07 1004.45 1004.87 1005.33 1005.81 1006.30 1006.78
1014.09 1013.94 1013.77 1013.53 1013.20 1012.79 1012.28 1011.71 1011.08 1010.44 1009.79 1009.16 1008.56 1007.98 1007.41 1006.85 1006.28 1005.72 1005.15 1004.60 1004.08 1003.61 1003.20 1002.85 1002.58 1002.38 1002.24 1002.14 1002.08 1002.05 1002.05 1002.09 1002.17 1002.31 1002.52 1002.80 1003.15 1003.57 1004.03 1004.54 1005.06 1005.59 1006.12
1013.81 1013.70 1013.55 1013.32 1013.00 1012.58 1012.05 1011.44 1010.77 1010.08 1009.37 1008.68 1008.02 1007.39 1006.77 1006.17 1005.58 1005.00 1004.43 1003.87 1003.35 1002.88 1002.46 1002.10 1001.81 1001.58 1001.40 1001.27 1001.17 1001.11 1001.09 1001.11 1001.18 1001.33 1001.55 1001.85 1002.23 1002.68 1003.20 1003.75 1004.32 1004.89 1005.47
Thickness
5748 5747 5747 5746 5746 5745 5745 5744 5744 5743 5743 5743 5742 5742 5742 5741 5741 5740 5739 5738 5738 5737 5736 5735 5734 5733 5732 5731 5729 5728 5727 5725 5723 5722 5721 5720 5718 5717 5716 5715 5714 5713 5712
5748 5747 5746 5745 5745 5744 5744 5743 5743 5742 5742 5741 5741 5741 5741 5740 5740 5739 5738 5737 5737 5736 5735 5735 5734 5733 5732 5730 5729 5727 5726 5724 5722 5721 5720 5719 5718 5717 5715 5714 5713 5712 5711
5748 5747 5746 5745 5745 5744 5744 5743 5742 5742 5741 5740 5739 5739 5739 5739 5738 5738 5737 5737 5736 5735 5734 5734 5733 5732 5730 5729 5728 5726 5725 5723 5722 5721 5720 5718 5717 5716 5715 5714 5713 5711 5710
5748 5747 5746 5745 5745 5744 5744 5743 5741 5740 5739 5738 5737 5737 5737 5737 5736 5736 5736 5735 5735 5734 5733 5733 5732 5730 5729 5728 5727 5725 5724 5723 5722 5720 5719 5718 5717 5715 5714 5712 5711 5710 5709
5748 5747 5746 5745 5745 5744 5743 5742 5740 5739 5736 5735 5735 5735 5735 5735 5735 5735 5734 5733 5733 5733 5732 5731 5730 5729 5728 5727 5726 5725 5724 5722 5721 5720 5719 5718 5716 5715 5713 5711 5710 5709 5707
5748 5747 5746 5745 5745 5743 5742 5741 5739 5737 5735 5734 5734 5732 5732 5733 5734 5733 5732 5732 5732 5731 5730 5729 5728 5727 5727 5726 5725 5724 5723 5722 5721 5720 5718 5717 5716 5714 5712 5710 5709 5707 5706
5749 5748 5747 5745 5744 5743 5741 5740 5738 5735 5733 5733 5730 5727 5729 5731 5731 5731 5731 5731 5731 5730 5728 5728 5726 5725 5725 5724 5724 5723 5723 5722 5721 5719 5718 5717 5715 5713 5711 5709 5707 5706 5705
5749 5748 5747 5745 5744 5742 5740 5739 5738 5734 5732 5732 5729 5724 5721 5723 5726 5729 5729 5729 5729 5728 5727 5726 5725 5724 5723 5723 5723 5722 5721 5721 5720 5718 5717 5715 5713 5711 5709 5707 5706 5704 5703
5750 5749 5748 5746 5744 5743 5740 5739 5738 5735 5732 5731 5730 5726 5719 5716 5720 5724 5726 5727 5726 5726 5725 5725 5724 5723 5722 5721 5721 5720 5719 5718 5717 5716 5715 5713 5711 5709 5707 5705 5704 5703 5701
5750 5749 5748 5747 5745 5744 5742 5740 5739 5737 5734 5730 5729 5729 5727 5725 5719 5718 5721 5724 5725 5724 5724 5723 5722 5721 5720 5719 5718 5717 5716 5715 5714 5713 5712 5710 5709 5707 5705 5703 5701 5700 5699
5751 5750 5749 5747 5746 5744 5743 5741 5740 5738 5736 5733 5731 5728 5726 5724 5723 5719 5716 5719 5721 5722 5722 5722 5721 5720 5719 5717 5716 5715 5714 5712 5711 5710 5708 5707 5705 5703 5702 5700 5698 5697 5696
5750 5750 5749 5748 5746 5745 5743 5742 5741 5739 5737 5735 5733 5731 5728 5725 5722 5720 5717 5716 5717 5719 5720 5720 5719 5718 5717 5715 5714 5713 5711 5710 5708 5706 5705 5703 5701 5700 5698 5697 5695 5694 5692
5749 5749 5749 5747 5746 5745 5744 5743 5741 5739 5737 5736 5734 5732 5731 5729 5727 5723 5719 5716 5715 5716 5717 5718 5718 5717 5716 5714 5712 5711 5709 5707 5705 5703 5701 5700 5698 5696 5694 5692 5691 5690 5688
5751 5751 5750 5749 5747 5746 5745 5743 5741 5740 5738 5736 5735 5733 5732 5730 5728 5726 5722 5717 5713 5712 5714 5715 5716 5715 5714 5712 5711 5708 5706 5704 5702 5700 5698 5696 5694 5692 5690 5688 5687 5685 5684
5753 5752 5750 5749 5748 5746 5745 5743 5741 5740 5738 5737 5736 5734 5732 5731 5729 5727 5724 5721 5715 5709 5710 5712 5712 5713 5711 5709 5707 5705 5703 5701 5699 5697 5694 5692 5690 5688 5686 5684 5682 5681 5679
5753 5751 5750 5749 5748 5746 5745 5743 5741 5740 5738 5736 5735 5733 5732 5730 5728 5726 5724 5721 5719 5714 5710 5712 5710 5710 5708 5706 5704 5701 5699 5697 5695 5693 5691 5688 5686 5684 5681 5680 5678 5676 5675
5753 5751 5749 5747 5746 5745 5744 5742 5740 5739 5737 5735 5734 5733 5731 5730 5727 5725 5722 5720 5717 5714 5709 5709 5708 5706 5704 5702 5699 5697 5695 5693 5691 5689 5686 5684 5681 5679 5677 5675 5674 5672 5671
5753 5751 5749 5747 5745 5744 5742 5740 5738 5737 5736 5734 5733 5731 5730 5728 5725 5723 5720 5718 5715 5713 5709 5706 5704 5701 5700 5698 5695 5693 5691 5689 5686 5684 5682 5679 5677 5675 5673 5671 5669 5667 5666
5752 5750 5748 5746 5744 5742 5741 5739 5737 5736 5735 5733 5731 5729 5728 5725 5722 5720 5718 5715 5713 5711 5707 5704 5701 5698 5695 5693 5690 5688 5686 5683 5681 5679 5677 5675 5673 5670 5668 5666 5664 5662 5661
5750 5748 5746 5744 5742 5741 5739 5737 5735 5734 5732 5731 5730 5728 5726 5723 5721 5718 5716 5713 5710 5706 5703 5700 5697 5694 5691 5688 5685 5683 5681 5679 5677 5675 5673 5671 5668 5666 5663 5661 5660 5658 5656
5748 5746 5743 5741 5740 5738 5737 5735 5732 5731 5729 5728 5726 5725 5724 5721 5719 5716 5714 5710 5706 5702 5698 5695 5692 5689 5687 5683 5681 5679 5677 5675 5672 5670 5668 5666 5664 5662 5660 5658 5656 5654 5652
5744 5742 5740 5738 5736 5736 5734 5732 5729 5727 5725 5723 5722 5721 5720 5718 5716 5713 5711 5708 5704 5699 5695 5691 5689 5686 5685 5682 5679 5676 5672 5669 5667 5667 5663 5663 5660 5658 5656 5655 5653 5651 5648
5740 5738 5737 5734 5732 5731 5730 5728 5726 5723 5720 5719 5717 5716 5715 5714 5711 5709 5706 5703 5701 5698 5695 5692 5688 5686 5683 5681 5676 5672 5669 5666 5665 5664 5659 5658 5656 5655 5654 5652 5650 5648 5645
5735 5733 5732 5730 5728 5727 5725 5723 5720 5718 5715 5713 5712 5711 5709 5708 5706 5703 5700 5697 5696 5694 5691 5688 5687 5685 5682 5679 5675 5671 5667 5663 5661 5658 5655 5654 5653 5651 5651 5649 5647 5644 5641
5728 5727 5726 5724 5722 5721 5719 5717 5714 5711 5709 5708 5707 5706 5704 5703 5701 5697 5694 5691 5689 5689 5687 5684 5682 5680 5677 5673 5670 5665 5660 5657 5656 5654 5651 5649 5650 5647 5646 5645 5643 5640 5637
5722 5720 5719 5717 5716 5714 5712 5710 5707 5704 5702 5702 5701 5699 5697 5696 5694 5690 5687 5685 5683 5682 5680 5677 5675 5673 5670 5667 5664 5661 5658 5654 5652 5650 5649 5645 5644 5641 5641 5641 5638 5635 5632